When you browse on this site, cookies collect data to enhance your experience and personalize the content and advertising you see.
Visit our Privacy Policy to learn more. By continuing to use the site, you agree to this use of cookies and data.
  • In France
  • List of Countries
  • For 7 days
  • Water Temperature
  • Weather Map
  • Weather Widgets
  • user-avatar
    Login

    Hourly Weather Tolubeeva

    Today, 14 October, Monday

    Time Temperature Precipitation Wind Pressure Humidity
    00:00 +12°C° 0.1 mm 3 mps 746 mmHg 93%
    01:00 +12°C° 0.1 mm 3 mps 746 mmHg 94%
    02:00 +13°C° 0.1 mm 2 mps 747 mmHg 95%
    03:00 +13°C° 0 mm 2 mps 747 mmHg 95%
    04:00 +13°C° 0 mm 2 mps 747 mmHg 95%
    05:00 +13°C° 0 mm 2 mps 747 mmHg 95%
    06:00 +13°C° 0 mm 2 mps 747 mmHg 94%
    07:00 +13°C° 0 mm 2 mps 747 mmHg 93%
    08:00 +14°C° 0 mm 2 mps 747 mmHg 91%
    09:00 +14°C° 0 mm 3 mps 747 mmHg 87%
    10:00 +15°C° 0 mm 4 mps 747 mmHg 82%
    11:00 +18°C° 0 mm 4 mps 747 mmHg 77%
    12:00 +17°C° 0 mm 5 mps 747 mmHg 75%
    13:00 +19°C° 0 mm 5 mps 746 mmHg 72%
    14:00 +20°C° 0 mm 5 mps 746 mmHg 70%
    15:00 +19°C° 0 mm 5 mps 745 mmHg 72%
    16:00 +17°C° 0 mm 5 mps 745 mmHg 73%
    17:00 +16°C° 0 mm 5 mps 744 mmHg 75%
    18:00 +15°C° 0 mm 6 mps 745 mmHg 73%
    19:00 +15°C° 0 mm 6 mps 745 mmHg 72%
    20:00 +14°C° 0 mm 6 mps 745 mmHg 71%
    21:00 +14°C° 0 mm 6 mps 744 mmHg 71%
    22:00 +14°C° 0 mm 6 mps 744 mmHg 70%
    23:00 +13°C° 0 mm 6 mps 744 mmHg 70%

    Tomorrow, 15 October, Tuesday

    Time Temperature Precipitation Wind Pressure Humidity
    00:00 +13°C° 0 mm 5 mps 744 mmHg 72%
    01:00 +12°C° 0 mm 5 mps 744 mmHg 73%
    02:00 +12°C° 0 mm 5 mps 744 mmHg 75%
    03:00 +12°C° 0 mm 5 mps 744 mmHg 79%
    04:00 +11°C° 0 mm 4 mps 744 mmHg 84%
    05:00 +11°C° 0 mm 4 mps 744 mmHg 88%
    06:00 +11°C° 0 mm 4 mps 745 mmHg 88%
    07:00 +12°C° 0 mm 4 mps 745 mmHg 88%
    08:00 +12°C° 0 mm 4 mps 746 mmHg 88%
    09:00 +13°C° 0 mm 4 mps 746 mmHg 83%
    10:00 +13°C° 0 mm 4 mps 746 mmHg 78%
    11:00 +14°C° 0 mm 3 mps 746 mmHg 72%
    12:00 +14°C° 0 mm 3 mps 747 mmHg 70%
    13:00 +16°C° 0 mm 3 mps 747 mmHg 67%
    14:00 +16°C° 0 mm 2 mps 747 mmHg 65%
    15:00 +15°C° 0 mm 2 mps 747 mmHg 69%
    16:00 +14°C° 0 mm 2 mps 747 mmHg 73%
    17:00 +13°C° 0 mm 2 mps 747 mmHg 78%
    18:00 +12°C° 0 mm 2 mps 748 mmHg 79%
    19:00 +12°C° 0 mm 2 mps 748 mmHg 80%
    20:00 +10°C° 0 mm 2 mps 749 mmHg 82%
    21:00 +10°C° 0 mm 2 mps 749 mmHg 83%
    22:00 +9°C° 0 mm 2 mps 749 mmHg 84%
    23:00 +9°C° 0 mm 2 mps 749 mmHg 86%

    Day after tomorrow, 16 October, Wednesday

    Time Temperature Precipitation Wind Pressure Humidity
    00:00 +9°C° 0 mm 2 mps 750 mmHg 87%
    01:00 +8°C° 0 mm 2 mps 750 mmHg 89%
    02:00 +8°C° 0 mm 2 mps 750 mmHg 91%
    03:00 +8°C° 0 mm 2 mps 750 mmHg 92%
    04:00 +8°C° 0 mm 2 mps 750 mmHg 93%
    05:00 +8°C° 0 mm 2 mps 750 mmHg 93%
    06:00 +8°C° 0 mm 3 mps 750 mmHg 91%
    07:00 +9°C° 0 mm 3 mps 750 mmHg 89%
    08:00 +9°C° 0 mm 3 mps 750 mmHg 87%
    09:00 +11°C° 0 mm 4 mps 750 mmHg 83%
    10:00 +12°C° 0 mm 4 mps 750 mmHg 78%
    11:00 +13°C° 0 mm 4 mps 750 mmHg 74%
    12:00 +14°C° 0 mm 4 mps 750 mmHg 73%
    13:00 +14°C° 0 mm 4 mps 749 mmHg 71%
    14:00 +15°C° 0 mm 4 mps 749 mmHg 70%
    15:00 +14°C° 0 mm 4 mps 749 mmHg 74%
    16:00 +13°C° 0 mm 4 mps 748 mmHg 79%
    17:00 +12°C° 0 mm 4 mps 748 mmHg 83%
    18:00 +12°C° 0 mm 4 mps 748 mmHg 83%
    19:00 +11°C° 0 mm 4 mps 748 mmHg 83%
    20:00 +10°C° 0 mm 5 mps 748 mmHg 83%
    21:00 +10°C° 0 mm 5 mps 748 mmHg 82%
    22:00 +10°C° 0 mm 5 mps 748 mmHg 82%
    23:00 +10°C° 0 mm 5 mps 747 mmHg 81%

    17 October, Thursday

    Time Temperature Precipitation Wind Pressure Humidity
    00:00 +9°C° 0 mm 5 mps 747 mmHg 82%
    01:00 +9°C° 0 mm 5 mps 747 mmHg 83%
    02:00 +9°C° 0 mm 5 mps 747 mmHg 84%
    03:00 +9°C° 0 mm 5 mps 746 mmHg 86%
    04:00 +9°C° 0 mm 5 mps 746 mmHg 88%
    05:00 +10°C° 0 mm 4 mps 746 mmHg 90%
    06:00 +9°C° 0 mm 5 mps 746 mmHg 88%
    07:00 +10°C° 0 mm 5 mps 746 mmHg 86%
    08:00 +12°C° 0 mm 5 mps 746 mmHg 83%
    09:00 +13°C° 0 mm 5 mps 746 mmHg 77%
    10:00 +14°C° 0 mm 5 mps 745 mmHg 70%
    11:00 +16°C° 0 mm 5 mps 745 mmHg 64%
    12:00 +16°C° 0 mm 5 mps 745 mmHg 62%
    13:00 +17°C° 0 mm 5 mps 745 mmHg 61%
    14:00 +18°C° 0 mm 4 mps 745 mmHg 60%
    15:00 +17°C° 0 mm 4 mps 745 mmHg 65%
    16:00 +16°C° 0 mm 3 mps 745 mmHg 71%
    17:00 +14°C° 0 mm 3 mps 744 mmHg 76%
    18:00 +14°C° 0 mm 3 mps 745 mmHg 78%
    19:00 +13°C° 0 mm 3 mps 745 mmHg 81%
    20:00 +13°C° 0 mm 3 mps 745 mmHg 83%
    21:00 +12°C° 0 mm 3 mps 745 mmHg 86%
    22:00 +13°C° 0 mm 2 mps 745 mmHg 89%
    23:00 +12°C° 0 mm 2 mps 745 mmHg 92%

    18 October, Friday

    Time Temperature Precipitation Wind Pressure Humidity
    00:00 +12°C° 0 mm 2 mps 745 mmHg 92%
    01:00 +12°C° 0 mm 2 mps 745 mmHg 93%
    02:00 +12°C° 0 mm 2 mps 745 mmHg 93%
    03:00 +12°C° 0 mm 2 mps 745 mmHg 92%
    04:00 +11°C° 0 mm 1 mps 746 mmHg 91%
    05:00 +11°C° 0 mm 1 mps 746 mmHg 91%
    06:00 +12°C° 0 mm 1 mps 746 mmHg 88%
    07:00 +12°C° 0 mm 1 mps 747 mmHg 85%
    08:00 +12°C° 0 mm 1 mps 747 mmHg 82%
    09:00 +13°C° 0 mm 1 mps 747 mmHg 77%
    10:00 +14°C° 0 mm 2 mps 748 mmHg 72%
    11:00 +15°C° 0 mm 2 mps 748 mmHg 67%
    12:00 +15°C° 0 mm 2 mps 748 mmHg 66%
    13:00 +16°C° 0 mm 2 mps 749 mmHg 66%
    14:00 +16°C° 0 mm 2 mps 749 mmHg 65%
    15:00 +14°C° 0 mm 3 mps 749 mmHg 69%
    16:00 +13°C° 0 mm 3 mps 749 mmHg 73%
    17:00 +12°C° 0 mm 4 mps 749 mmHg 77%
    18:00 +11°C° 0 mm 4 mps 750 mmHg 78%
    19:00 +11°C° 0 mm 4 mps 750 mmHg 78%
    20:00 +10°C° 0 mm 4 mps 750 mmHg 78%
    21:00 +10°C° 0 mm 4 mps 750 mmHg 78%
    22:00 +8°C° 0 mm 5 mps 750 mmHg 78%
    23:00 +8°C° 0 mm 5 mps 750 mmHg 77%

    19 October, Saturday

    Time Temperature Precipitation Wind Pressure Humidity
    00:00 +8°C° 0.2 mm 4 mps 751 mmHg 78%
    01:00 +8°C° 0.2 mm 4 mps 751 mmHg 78%
    02:00 +7°C° 0.2 mm 4 mps 751 mmHg 78%
    03:00 +7°C° 0.3 mm 4 mps 751 mmHg 80%
    04:00 +7°C° 0.3 mm 4 mps 751 mmHg 83%
    05:00 +7°C° 0.3 mm 4 mps 751 mmHg 85%
    06:00 +7°C° 0.5 mm 4 mps 751 mmHg 86%
    07:00 +8°C° 0.5 mm 3 mps 751 mmHg 87%
    08:00 +8°C° 0.5 mm 3 mps 751 mmHg 89%
    09:00 +8°C° 0.2 mm 3 mps 751 mmHg 88%
    10:00 +8°C° 0.2 mm 3 mps 751 mmHg 88%
    11:00 +9°C° 0.2 mm 3 mps 751 mmHg 88%
    12:00 +9°C° 0 mm 3 mps 751 mmHg 86%
    13:00 +10°C° 0 mm 3 mps 751 mmHg 85%
    14:00 +10°C° 0 mm 3 mps 751 mmHg 83%
    15:00 +10°C° 0 mm 3 mps 751 mmHg 86%
    16:00 +9°C° 0 mm 2 mps 750 mmHg 90%
    17:00 +9°C° 0 mm 2 mps 750 mmHg 93%
    18:00 +9°C° 0 mm 2 mps 750 mmHg 93%
    19:00 +8°C° 0 mm 2 mps 751 mmHg 93%
    20:00 +8°C° 0 mm 2 mps 751 mmHg 93%
    21:00 +8°C° 0 mm 2 mps 751 mmHg 93%
    22:00 +8°C° 0 mm 2 mps 751 mmHg 93%
    23:00 +8°C° 0 mm 2 mps 751 mmHg 92%
    Show more